Temp
-16 -16 -16 -16 -16 -16 -16 -16 -16 -16 -16 -16 -16 -16 -16 -16 -15 -15 -15 -15 -15 -15 -15 -15 -15 -15 -14 -13 -12 -12 -11 -11 -11 -11 -11 -11 -11 -10 -10 -9 -8 -8 -7 -6 -7 -7 -7 -6 -6 -6 -6 -6 -6 -6 -5 -5 -5 -5 -4 -4 -4 -4 -4 -3 -3 -3 -3 -3 -3 -3 -3 -3 -2 -3
-16 -16 -16 -16 -16 -16 -16 -16 -16 -16 -16 -16 -16 -16 -16 -17 -16 -16 -16 -15 -16 -16 -16 -16 -15 -15 -15 -14 -13 -12 -12 -11 -11 -11 -11 -11 -11 -11 -11 -10 -10 -9 -8 -7 -7 -7 -7 -6 -6 -6 -6 -6 -6 -6 -6 -5 -5 -5 -5 -4 -4 -4 -4 -4 -3 -3 -3 -3 -3 -3 -3 -3 -3 -3
-16 -16 -16 -16 -16 -16 -16 -16 -16 -16 -16 -16 -16 -16 -16 -17 -17 -17 -16 -16 -16 -17 -16 -16 -16 -16 -15 -15 -14 -13 -12 -12 -12 -12 -12 -11 -11 -11 -11 -11 -11 -10 -9 -8 -7 -7 -7 -6 -6 -6 -6 -6 -6 -6 -6 -6 -6 -5 -5 -5 -4 -4 -4 -4 -4 -3 -3 -3 -3 -3 -3 -3 -3 -3
-16 -16 -16 -17 -17 -17 -17 -17 -17 -17 -17 -17 -17 -17 -17 -17 -17 -17 -17 -16 -16 -17 -17 -17 -17 -17 -16 -15 -15 -14 -13 -13 -12 -12 -12 -12 -11 -11 -11 -11 -11 -11 -10 -9 -8 -8 -8 -7 -6 -6 -6 -6 -6 -6 -6 -6 -6 -6 -5 -5 -5 -5 -4 -4 -4 -4 -4 -4 -3 -3 -3 -3 -3 -3
-16 -16 -16 -17 -17 -17 -17 -17 -17 -17 -17 -17 -17 -17 -17 -17 -17 -17 -17 -17 -17 -17 -17 -17 -17 -17 -17 -16 -16 -15 -15 -14 -13 -12 -12 -12 -12 -11 -11 -11 -11 -11 -11 -10 -9 -9 -8 -8 -7 -7 -6 -6 -6 -6 -6 -6 -6 -6 -5 -5 -5 -5 -5 -5 -4 -4 -4 -4 -4 -4 -3 -3 -3 -3
-16 -16 -16 -17 -17 -17 -17 -17 -17 -17 -17 -17 -17 -17 -17 -17 -17 -17 -18 -17 -17 -17 -18 -18 -18 -18 -18 -17 -16 -16 -15 -15 -14 -13 -12 -12 -12 -12 -11 -11 -11 -11 -11 -11 -10 -9 -9 -9 -8 -7 -7 -6 -6 -6 -6 -6 -6 -6 -5 -5 -5 -5 -5 -5 -5 -5 -5 -5 -4 -4 -4 -3 -3 -3
-17 -17 -17 -17 -17 -17 -17 -17 -17 -17 -17 -17 -17 -17 -17 -17 -17 -18 -18 -18 -18 -17 -18 -18 -18 -18 -18 -18 -17 -17 -16 -15 -15 -14 -13 -13 -12 -12 -11 -11 -11 -10 -11 -11 -10 -10 -9 -9 -9 -8 -8 -7 -7 -6 -6 -6 -6 -6 -6 -6 -6 -5 -5 -5 -5 -5 -5 -5 -5 -5 -4 -4 -4 -4
-17 -17 -17 -17 -17 -17 -17 -17 -17 -17 -17 -17 -17 -17 -17 -17 -18 -18 -18 -18 -18 -18 -18 -18 -18 -19 -19 -18 -18 -18 -17 -16 -15 -15 -14 -14 -13 -12 -11 -11 -11 -11 -10 -10 -10 -10 -10 -10 -9 -9 -9 -8 -8 -7 -6 -6 -6 -6 -6 -6 -6 -6 -5 -5 -5 -5 -5 -5 -5 -5 -5 -5 -4 -4
-17 -17 -17 -17 -17 -17 -17 -17 -17 -17 -17 -17 -17 -17 -17 -17 -18 -18 -18 -18 -18 -18 -18 -18 -18 -19 -19 -19 -19 -18 -18 -17 -16 -15 -15 -14 -14 -13 -12 -11 -11 -11 -11 -10 -10 -10 -10 -10 -9 -9 -9 -9 -8 -8 -7 -6 -6 -6 -6 -6 -7 -6 -6 -6 -6 -6 -5 -5 -5 -5 -5 -5 -5 -5
-17 -17 -17 -17 -17 -17 -17 -18 -18 -17 -17 -17 -17 -17 -17 -18 -18 -18 -18 -18 -18 -18 -18 -18 -18 -19 -19 -19 -19 -19 -19 -18 -17 -16 -15 -15 -14 -14 -13 -12 -11 -11 -11 -11 -11 -10 -10 -10 -10 -9 -9 -9 -9 -8 -8 -7 -7 -6 -6 -6 -7 -7 -7 -7 -7 -7 -7 -7 -6 -6 -5 -5 -5 -5
-17 -17 -17 -18 -18 -18 -18 -18 -18 -18 -18 -17 -17 -17 -18 -18 -18 -18 -18 -18 -18 -18 -18 -18 -18 -19 -19 -19 -19 -19 -20 -19 -18 -17 -16 -16 -15 -15 -14 -13 -12 -11 -11 -11 -11 -11 -10 -10 -10 -10 -10 -9 -9 -9 -8 -8 -7 -7 -7 -7 -7 -8 -7 -7 -7 -8 -8 -8 -8 -7 -6 -5 -5 -5
-17 -18 -18 -18 -18 -18 -18 -18 -18 -18 -18 -18 -18 -18 -18 -18 -18 -18 -18 -18 -18 -18 -18 -18 -18 -19 -19 -19 -20 -20 -20 -19 -19 -18 -17 -17 -16 -15 -15 -14 -13 -12 -11 -11 -11 -11 -11 -10 -10 -10 -10 -10 -9 -9 -9 -8 -8 -8 -7 -7 -7 -8 -8 -7 -7 -8 -8 -8 -8 -8 -8 -7 -6 -5
-18 -18 -18 -18 -18 -18 -18 -18 -18 -18 -18 -18 -18 -18 -18 -18 -18 -18 -18 -18 -18 -18 -18 -18 -18 -18 -19 -19 -20 -20 -20 -20 -20 -20 -18 -17 -16 -16 -15 -14 -14 -13 -12 -11 -11 -11 -11 -11 -10 -10 -10 -10 -9 -9 -9 -9 -8 -8 -8 -8 -7 -7 -8 -8 -8 -8 -8 -8 -8 -8 -8 -8 -7 -7
-18 -18 -18 -18 -18 -18 -18 -18 -18 -18 -18 -18 -18 -18 -18 -18 -19 -18 -18 -18 -18 -18 -18 -18 -18 -18 -19 -19 -20 -20 -21 -20 -20 -20 -19 -17 -17 -17 -15 -15 -14 -14 -13 -12 -12 -11 -11 -11 -11 -10 -10 -10 -10 -9 -9 -9 -9 -8 -8 -8 -8 -8 -8 -8 -8 -8 -8 -8 -8 -8 -8 -8 -8 -8
-18 -18 -18 -19 -18 -18 -18 -19 -19 -18 -18 -19 -19 -19 -19 -19 -19 -19 -19 -18 -18 -18 -18 -18 -18 -18 -19 -20 -20 -20 -21 -21 -20 -20 -19 -18 -18 -17 -16 -15 -15 -15 -14 -14 -13 -12 -12 -11 -11 -10 -10 -10 -10 -9 -9 -9 -9 -9 -9 -8 -8 -8 -8 -8 -8 -8 -8 -8 -8 -8 -8 -8 -8 -8
-19 -19 -19 -19 -19 -19 -19 -19 -19 -19 -19 -19 -19 -19 -19 -19 -19 -19 -19 -19 -18 -18 -18 -18 -18 -19 -19 -20 -20 -21 -21 -21 -21 -20 -20 -19 -18 -17 -16 -16 -16 -16 -15 -14 -14 -13 -12 -12 -11 -10 -10 -10 -10 -10 -9 -9 -9 -9 -9 -8 -8 -8 -8 -8 -8 -8 -8 -8 -8 -8 -8 -8 -8 -8
-20 -19 -19 -20 -19 -19 -19 -19 -19 -19 -19 -19 -19 -19 -20 -19 -19 -19 -19 -19 -19 -18 -18 -18 -19 -19 -19 -20 -20 -21 -21 -21 -21 -21 -20 -20 -19 -18 -17 -17 -17 -17 -16 -15 -14 -13 -13 -12 -11 -11 -11 -10 -10 -10 -9 -9 -9 -9 -9 -9 -9 -8 -8 -8 -8 -8 -8 -8 -8 -8 -8 -8 -8 -8
-20 -20 -20 -20 -20 -19 -19 -19 -19 -19 -19 -19 -20 -20 -20 -20 -20 -20 -20 -19 -19 -18 -18 -19 -19 -19 -19 -20 -20 -20 -20 -21 -21 -21 -21 -21 -20 -19 -18 -18 -17 -17 -16 -15 -15 -14 -13 -13 -12 -12 -11 -11 -11 -10 -10 -10 -9 -9 -9 -9 -9 -9 -8 -8 -8 -8 -8 -8 -8 -8 -8 -8 -8 -8
-20 -20 -20 -20 -20 -20 -20 -19 -19 -19 -19 -19 -20 -20 -20 -20 -20 -20 -20 -20 -20 -19 -19 -19 -19 -19 -19 -20 -20 -20 -20 -21 -21 -21 -22 -21 -21 -20 -20 -19 -18 -18 -17 -16 -15 -15 -14 -14 -14 -13 -12 -12 -11 -11 -10 -10 -10 -9 -9 -9 -9 -9 -9 -8 -8 -8 -8 -8 -8 -8 -8 -8 -8 -8
-20 -20 -20 -20 -20 -20 -20 -20 -19 -19 -19 -19 -20 -20 -20 -20 -20 -21 -21 -21 -20 -20 -20 -19 -19 -19 -20 -20 -20 -20 -21 -21 -21 -22 -22 -21 -21 -21 -20 -20 -19 -19 -19 -18 -17 -16 -15 -15 -15 -13 -13 -13 -12 -12 -11 -11 -10 -10 -10 -9 -9 -9 -9 -9 -9 -8 -8 -8 -8 -8 -8 -8 -8 -8
-20 -20 -20 -20 -20 -20 -20 -20 -20 -20 -19 -19 -20 -20 -20 -20 -21 -21 -21 -21 -21 -21 -20 -20 -20 -20 -20 -20 -20 -20 -21 -21 -22 -22 -22 -22 -22 -22 -21 -21 -21 -21 -20 -20 -18 -17 -16 -16 -16 -14 -14 -14 -13 -13 -12 -12 -11 -11 -10 -10 -10 -9 -9 -9 -9 -9 -8 -8 -8 -8 -8 -8 -8 -8
-20 -20 -20 -20 -20 -20 -20 -20 -20 -20 -19 -19 -20 -20 -20 -20 -21 -21 -21 -21 -21 -21 -21 -21 -20 -20 -20 -20 -20 -20 -21 -21 -22 -22 -22 -22 -22 -22 -22 -22 -22 -21 -21 -21 -20 -18 -17 -18 -17 -16 -16 -15 -14 -14 -13 -13 -12 -12 -11 -11 -10 -10 -10 -9 -9 -9 -9 -9 -8 -8 -8 -8 -8 -8
-20 -20 -20 -20 -20 -20 -20 -20 -20 -20 -20 -19 -19 -20 -20 -20 -21 -21 -21 -21 -21 -21 -21 -21 -21 -21 -21 -21 -21 -21 -21 -21 -21 -21 -22 -22 -23 -23 -22 -22 -22 -21 -21 -21 -20 -19 -19 -19 -18 -17 -17 -16 -15 -15 -15 -14 -13 -13 -12 -12 -12 -11 -11 -10 -10 -10 -9 -9 -9 -9 -8 -8 -8 -8
-20 -21 -21 -20 -20 -20 -21 -20 -20 -20 -20 -20 -19 -19 -20 -20 -21 -21 -21 -21 -21 -21 -21 -21 -21 -21 -21 -21 -21 -21 -21 -21 -21 -21 -21 -21 -22 -22 -22 -21 -21 -21 -21 -21 -21 -20 -20 -20 -20 -19 -18 -18 -17 -17 -16 -15 -14 -14 -14 -13 -13 -13 -12 -12 -11 -11 -10 -10 -9 -9 -9 -9 -8 -8
-20 -21 -20 -20 -20 -20 -20 -20 -20 -20 -20 -20 -20 -19 -19 -20 -21 -21 -21 -21 -21 -21 -21 -21 -21 -21 -21 -21 -21 -21 -21 -21 -21 -21 -21 -21 -21 -21 -21 -21 -21 -21 -21 -20 -20 -20 -20 -20 -20 -20 -19 -19 -18 -18 -17 -16 -16 -15 -15 -14 -14 -14 -13 -13 -12 -12 -11 -11 -10 -10 -10 -9 -9 -9
-20 -20 -20 -20 -20 -20 -20 -20 -20 -20 -20 -20 -20 -20 -19 -19 -20 -20 -21 -21 -21 -21 -21 -21 -21 -21 -21 -21 -21 -21 -21 -21 -21 -21 -21 -21 -21 -21 -21 -21 -21 -20 -20 -20 -20 -20 -21 -20 -20 -20 -20 -19 -19 -19 -18 -18 -17 -17 -16 -16 -15 -15 -14 -14 -13 -13 -12 -12 -12 -11 -11 -10 -10 -10
-19 -20 -20 -20 -21 -20 -20 -20 -20 -20 -20 -20 -20 -20 -20 -19 -19 -19 -20 -20 -21 -21 -21 -21 -20 -20 -21 -21 -21 -21 -21 -21 -21 -22 -22 -22 -21 -21 -21 -21 -20 -20 -20 -20 -20 -20 -20 -20 -20 -20 -20 -20 -19 -19 -19 -19 -18 -18 -18 -17 -17 -16 -16 -15 -14 -14 -14 -13 -13 -12 -12 -11 -11 -11
-19 -19 -20 -21 -21 -20 -20 -20 -20 -20 -20 -20 -20 -20 -20 -19 -19 -19 -19 -20 -20 -20 -20 -20 -20 -20 -20 -20 -21 -21 -21 -21 -21 -21 -21 -21 -21 -21 -21 -21 -20 -20 -20 -20 -20 -20 -20 -20 -20 -20 -20 -20 -19 -19 -19 -19 -19 -19 -19 -18 -18 -18 -17 -16 -16 -15 -15 -15 -14 -14 -13 -13 -12 -12
-19 -19 -20 -20 -20 -20 -20 -20 -20 -20 -20 -20 -20 -20 -20 -19 -19 -19 -19 -19 -20 -20 -20 -20 -20 -20 -20 -20 -20 -20 -21 -21 -21 -21 -21 -21 -21 -21 -21 -21 -20 -20 -20 -20 -20 -20 -20 -20 -20 -20 -20 -20 -19 -19 -19 -19 -19 -19 -19 -19 -19 -18 -18 -17 -17 -17 -16 -16 -15 -15 -15 -14 -14 -13
-19 -19 -20 -20 -20 -20 -20 -20 -20 -20 -20 -20 -20 -20 -19 -19 -19 -20 -20 -20 -19 -19 -20 -20 -20 -20 -20 -20 -20 -20 -21 -21 -21 -21 -21 -21 -21 -21 -21 -21 -20 -20 -20 -20 -20 -20 -20 -20 -20 -20 -20 -19 -19 -19 -19 -19 -19 -19 -19 -19 -19 -18 -18 -18 -17 -17 -17 -17 -17 -16 -16 -15 -15 -14
-19 -20 -19 -19 -19 -20 -20 -20 -20 -20 -20 -20 -20 -20 -19 -19 -19 -20 -20 -20 -20 -20 -20 -20 -20 -20 -20 -20 -20 -20 -20 -20 -21 -21 -21 -21 -21 -21 -21 -21 -21 -20 -20 -20 -20 -20 -20 -20 -20 -20 -19 -19 -19 -19 -19 -19 -19 -19 -19 -19 -19 -18 -18 -18 -18 -17 -17 -17 -17 -17 -16 -16 -16 -15
-20 -20 -19 -19 -19 -20 -20 -20 -20 -20 -20 -20 -20 -20 -19 -19 -19 -20 -20 -20 -20 -20 -20 -20 -20 -20 -20 -20 -20 -20 -20 -20 -20 -21 -21 -21 -21 -21 -21 -21 -21 -21 -20 -20 -20 -20 -20 -20 -20 -19 -19 -19 -19 -19 -19 -19 -19 -19 -19 -19 -18 -18 -18 -18 -17 -17 -17 -17 -17 -17 -17 -16 -16 -16
-20 -20 -20 -19 -19 -20 -20 -20 -20 -20 -20 -20 -20 -20 -20 -20 -20 -20 -20 -20 -20 -20 -20 -20 -20 -20 -20 -20 -20 -20 -20 -20 -20 -21 -21 -21 -21 -21 -21 -21 -20 -21 -21 -20 -20 -20 -20 -20 -20 -19 -19 -19 -19 -19 -19 -19 -18 -18 -19 -18 -18 -18 -18 -18 -17 -17 -17 -17 -17 -17 -17 -16 -16 -16
-20 -20 -20 -20 -20 -20 -20 -20 -20 -20 -20 -20 -20 -20 -20 -20 -20 -20 -20 -20 -20 -20 -20 -20 -20 -20 -20 -20 -20 -20 -20 -20 -20 -21 -21 -21 -21 -21 -21 -21 -21 -21 -21 -21 -20 -20 -20 -20 -20 -19 -19 -19 -19 -19 -19 -19 -19 -19 -18 -18 -18 -18 -18 -17 -17 -17 -17 -17 -17 -16 -16 -16 -16 -16
-21 -20 -20 -20 -20 -20 -20 -20 -20 -20 -20 -20 -20 -20 -20 -20 -20 -20 -20 -20 -20 -20 -20 -20 -20 -20 -20 -20 -20 -20 -20 -20 -21 -21 -21 -21 -21 -21 -21 -21 -21 -21 -21 -21 -21 -21 -20 -20 -20 -20 -19 -19 -19 -19 -19 -19 -19 -19 -19 -18 -18 -18 -18 -18 -17 -17 -17 -17 -17 -17 -16 -16 -16 -16
-21 -20 -21 -21 -20 -20 -20 -20 -20 -20 -20 -20 -20 -20 -20 -20 -20 -20 -20 -20 -20 -20 -20 -20 -20 -20 -20 -20 -20 -20 -20 -21 -21 -21 -21 -21 -21 -22 -22 -22 -21 -21 -21 -21 -21 -21 -21 -20 -20 -20 -20 -19 -19 -19 -19 -19 -19 -19 -19 -19 -18 -18 -18 -18 -18 -18 -17 -17 -17 -17 -17 -17 -17 -17
-20 -21 -21 -21 -20 -20 -20 -20 -20 -20 -20 -20 -20 -20 -20 -20 -20 -20 -20 -20 -20 -20 -20 -20 -20 -20 -20 -20 -20 -20 -21 -21 -21 -21 -21 -21 -22 -22 -22 -22 -22 -22 -22 -21 -21 -21 -21 -21 -20 -20 -20 -20 -19 -19 -19 -19 -19 -19 -19 -19 -19 -18 -18 -18 -18 -18 -18 -17 -17 -17 -17 -17 -17 -17
-21 -21 -21 -21 -21 -21 -21 -20 -20 -20 -20 -20 -20 -20 -20 -20 -20 -20 -20 -20 -20 -20 -20 -20 -20 -20 -20 -20 -21 -21 -21 -21 -21 -21 -22 -22 -22 -22 -22 -22 -22 -22 -22 -22 -21 -21 -21 -21 -21 -21 -20 -20 -19 -19 -19 -19 -19 -19 -19 -19 -19 -19 -19 -19 -18 -18 -18 -18 -18 -18 -18 -18 -18 -17
-21 -21 -21 -21 -21 -21 -21 -21 -21 -21 -21 -21 -21 -21 -21 -20 -20 -20 -20 -20 -20 -20 -20 -20 -20 -20 -20 -21 -21 -21 -21 -21 -21 -22 -22 -22 -22 -22 -22 -22 -22 -22 -22 -22 -21 -21 -21 -21 -21 -21 -21 -20 -20 -19 -19 -19 -19 -20 -20 -20 -19 -19 -19 -19 -19 -19 -19 -19 -19 -19 -19 -18 -18 -18
-21 -21 -21 -21 -21 -21 -21 -21 -21 -21 -21 -21 -21 -21 -21 -21 -21 -21 -21 -21 -21 -21 -20 -20 -20 -20 -21 -21 -21 -21 -21 -21 -22 -22 -22 -22 -22 -22 -22 -22 -22 -22 -22 -22 -21 -21 -21 -21 -21 -21 -21 -21 -20 -20 -20 -20 -20 -20 -20 -20 -20 -20 -20 -20 -20 -20 -20 -20 -20 -20 -19 -19 -19 -18
-21 -21 -21 -21 -21 -21 -21 -21 -21 -21 -21 -21 -21 -21 -21 -21 -21 -21 -21 -21 -21 -21 -21 -21 -21 -21 -21 -21 -21 -21 -21 -21 -22 -22 -22 -22 -22 -22 -22 -22 -22 -22 -22 -21 -21 -21 -21 -21 -21 -21 -21 -21 -20 -20 -20 -20 -20 -20 -20 -20 -20 -20 -20 -20 -20 -20 -20 -20 -20 -20 -20 -20 -19 -19
-22 -22 -21 -22 -22 -22 -21 -21 -21 -21 -21 -21 -21 -21 -21 -21 -21 -21 -21 -21 -21 -21 -21 -21 -21 -21 -21 -21 -21 -21 -21 -21 -21 -22 -22 -22 -22 -22 -22 -22 -22 -22 -21 -21 -21 -21 -21 -21 -21 -20 -20 -20 -20 -20 -20 -20 -20 -20 -20 -20 -20 -20 -20 -20 -21 -21 -20 -20 -20 -20 -20 -20 -20 -19
-22 -22 -22 -22 -22 -22 -22 -22 -21 -21 -21 -21 -21 -21 -21 -21 -21 -21 -21 -21 -21 -21 -21 -21 -21 -21 -21 -21 -21 -21 -21 -21 -21 -22 -22 -22 -22 -22 -22 -22 -21 -21 -21 -21 -21 -21 -21 -21 -21 -20 -20 -20 -20 -20 -20 -20 -20 -20 -20 -20 -20 -20 -20 -20 -20 -21 -21 -20 -20 -20 -20 -20 -20 -20
-22 -22 -22 -22 -22 -22 -22 -22 -22 -22 -22 -22 -21 -21 -21 -21 -21 -21 -21 -21 -21 -21 -21 -21 -21 -21 -21 -21 -21 -21 -21 -21 -21 -21 -22 -22 -22 -22 -22 -21 -21 -21 -21 -21 -21 -21 -20 -20 -20 -20 -20 -20 -20 -20 -20 -20 -20 -20 -20 -20 -20 -20 -20 -20 -20 -21 -21 -21 -20 -20 -20 -20 -20 -20
-23 -23 -22 -22 -22 -22 -22 -22 -22 -22 -22 -22 -22 -21 -21 -21 -21 -21 -21 -21 -21 -21 -21 -21 -21 -21 -21 -21 -21 -21 -21 -21 -21 -22 -22 -22 -22 -22 -22 -22 -21 -21 -21 -21 -21 -21 -21 -20 -20 -20 -20 -20 -20 -20 -20 -20 -20 -20 -20 -20 -20 -21 -21 -21 -21 -21 -21 -21 -20 -20 -20 -20 -20 -20
Height
2899 2899 2900 2899 2899 2899 2899 2899 2899 2899 2900 2901 2902 2903 2904 2905 2907 2907 2908 2909 2909 2909 2912 2916 2919 2922 2926 2930 2933 2937 2940 2944 2947 2951 2954 2958 2962 2965 2968 2971 2975 2978 2983 2988 2993 2996 3000 3003 3006 3009 3013 3016 3019 3022 3025 3029 3033 3036 3040 3044 3047 3050 3052 3055 3058 3061 3064 3066 3069 3072 3074 3076 3079 3082
2895 2895 2896 2896 2895 2895 2895 2895 2895 2895 2895 2896 2897 2898 2899 2900 2901 2902 2903 2904 2906 2905 2905 2908 2911 2915 2918 2922 2927 2930 2934 2938 2941 2944 2948 2952 2956 2960 2963 2967 2970 2973 2976 2981 2986 2990 2995 2998 3001 3005 3008 3011 3014 3017 3021 3025 3028 3031 3035 3039 3042 3046 3049 3051 3054 3057 3059 3063 3065 3068 3070 3073 3077 3080
2891 2891 2892 2892 2891 2891 2891 2891 2891 2891 2891 2891 2892 2893 2894 2894 2895 2897 2898 2899 2900 2901 2900 2901 2904 2907 2910 2915 2919 2923 2927 2931 2935 2938 2941 2946 2950 2954 2958 2961 2965 2968 2971 2975 2979 2984 2988 2992 2996 3000 3004 3007 3009 3013 3016 3020 3023 3026 3029 3033 3037 3041 3045 3048 3050 3052 3054 3058 3061 3064 3066 3070 3073 3076
2887 2887 2887 2887 2887 2887 2887 2887 2887 2887 2887 2887 2887 2887 2888 2889 2890 2891 2893 2894 2895 2896 2896 2896 2898 2900 2903 2907 2911 2915 2919 2923 2928 2932 2935 2939 2943 2947 2951 2955 2959 2962 2966 2969 2973 2977 2982 2986 2991 2995 2999 3002 3005 3008 3011 3015 3018 3020 3023 3027 3032 3037 3040 3043 3045 3047 3049 3052 3056 3059 3062 3065 3069 3072
2883 2883 2883 2883 2883 2882 2883 2883 2883 2883 2883 2883 2883 2883 2883 2884 2885 2886 2887 2889 2890 2891 2891 2891 2893 2895 2897 2899 2903 2907 2911 2916 2920 2924 2928 2932 2937 2941 2945 2948 2952 2956 2960 2964 2967 2971 2975 2980 2985 2989 2993 2997 3001 3004 3006 3010 3012 3015 3018 3023 3027 3031 3034 3037 3040 3042 3045 3047 3050 3054 3057 3060 3064 3066
2880 2880 2879 2879 2879 2878 2879 2879 2879 2879 2879 2879 2879 2880 2879 2879 2880 2880 2881 2883 2885 2886 2887 2887 2888 2889 2890 2893 2896 2899 2903 2908 2913 2916 2921 2926 2930 2934 2938 2941 2945 2949 2953 2958 2962 2965 2969 2974 2978 2983 2987 2991 2995 2998 3001 3004 3006 3010 3014 3018 3022 3025 3028 3031 3034 3037 3040 3043 3045 3049 3052 3055 3058 3061
2876 2876 2876 2875 2875 2875 2875 2875 2875 2875 2875 2876 2876 2876 2876 2876 2876 2876 2876 2877 2879 2881 2883 2883 2883 2884 2885 2887 2889 2891 2895 2900 2905 2909 2914 2918 2922 2926 2930 2934 2938 2942 2946 2951 2955 2959 2963 2968 2972 2977 2981 2985 2989 2992 2996 2999 3002 3006 3010 3013 3016 3020 3023 3025 3028 3031 3035 3038 3040 3044 3047 3050 3053 3056
2873 2872 2872 2871 2871 2871 2872 2872 2872 2871 2871 2872 2872 2873 2873 2873 2872 2872 2872 2872 2873 2875 2878 2879 2878 2879 2880 2881 2883 2885 2888 2891 2896 2901 2906 2909 2913 2917 2922 2926 2931 2935 2939 2943 2948 2953 2957 2962 2966 2971 2975 2979 2983 2986 2990 2994 2998 3001 3004 3007 3010 3014 3017 3020 3022 3025 3029 3032 3035 3038 3042 3045 3047 3051
2870 2869 2868 2868 2867 2868 2868 2868 2868 2868 2868 2868 2868 2869 2869 2869 2869 2869 2868 2868 2868 2869 2872 2874 2874 2874 2875 2876 2878 2879 2881 2884 2888 2892 2896 2900 2905 2908 2913 2918 2923 2927 2932 2936 2941 2947 2952 2956 2961 2965 2969 2973 2977 2980 2984 2988 2992 2996 2999 3001 3004 3008 3012 3015 3018 3020 3023 3026 3029 3032 3036 3040 3042 3045
2866 2866 2865 2865 2864 2864 2864 2864 2864 2864 2864 2864 2865 2865 2865 2865 2865 2865 2865 2864 2864 2864 2865 2867 2869 2870 2870 2871 2873 2874 2876 2878 2880 2884 2888 2892 2896 2900 2904 2909 2914 2919 2924 2929 2934 2940 2946 2951 2955 2959 2963 2967 2971 2975 2978 2982 2986 2990 2993 2996 2999 3003 3007 3011 3014 3016 3018 3021 3024 3027 3030 3034 3037 3040
2863 2863 2862 2862 2861 2861 2861 2861 2861 2861 2861 2861 2861 2861 2861 2861 2861 2861 2861 2860 2859 2859 2859 2861 2863 2865 2866 2867 2868 2869 2870 2872 2875 2878 2881 2884 2888 2892 2896 2901 2905 2910 2917 2923 2928 2933 2939 2944 2948 2953 2957 2961 2965 2969 2973 2976 2980 2984 2987 2990 2993 2997 3001 3005 3009 3013 3016 3018 3020 3022 3025 3028 3031 3034
2860 2860 2860 2859 2859 2859 2858 2858 2858 2857 2857 2858 2857 2857 2857 2857 2857 2857 2856 2856 2855 2854 2854 2855 2857 2859 2861 2862 2863 2864 2865 2867 2869 2870 2872 2876 2881 2884 2888 2893 2898 2903 2910 2915 2921 2926 2931 2936 2941 2946 2951 2955 2959 2963 2967 2970 2974 2978 2982 2985 2987 2991 2995 2999 3004 3008 3012 3015 3016 3018 3020 3022 3025 3028
2858 2857 2857 2857 2856 2856 2856 2855 2855 2854 2854 2854 2854 2854 2853 2853 2853 2852 2852 2851 2851 2850 2850 2851 2852 2853 2855 2857 2859 2860 2860 2861 2862 2862 2865 2870 2875 2876 2880 2885 2892 2898 2903 2907 2913 2918 2923 2928 2933 2938 2943 2949 2953 2957 2961 2965 2969 2972 2976 2979 2982 2985 2988 2993 2997 3001 3006 3010 3012 3013 3015 3017 3020 3023
2855 2854 2854 2854 2854 2853 2853 2853 2852 2852 2852 2851 2851 2850 2850 2849 2849 2848 2848 2847 2847 2846 2846 2847 2848 2849 2851 2853 2854 2855 2856 2856 2856 2858 2860 2864 2867 2869 2874 2881 2887 2891 2895 2900 2905 2910 2914 2919 2924 2930 2936 2942 2946 2950 2955 2959 2963 2966 2969 2973 2976 2979 2982 2986 2990 2994 2998 3002 3006 3008 3010 3013 3015 3019
2852 2851 2851 2851 2851 2851 2850 2850 2850 2849 2849 2848 2848 2847 2847 2846 2845 2845 2844 2844 2843 2843 2843 2844 2845 2846 2848 2849 2850 2851 2852 2852 2853 2855 2856 2858 2861 2865 2871 2877 2881 2883 2888 2892 2896 2900 2905 2911 2917 2923 2928 2933 2938 2943 2948 2952 2956 2959 2963 2967 2971 2974 2977 2979 2982 2986 2990 2994 2998 3002 3005 3009 3012 3015
2848 2848 2848 2849 2849 2848 2848 2847 2847 2847 2846 2846 2845 2845 2844 2843 2843 2842 2841 2841 2840 2840 2840 2841 2842 2843 2845 2845 2846 2848 2849 2849 2850 2851 2852 2855 2858 2862 2867 2872 2875 2877 2880 2884 2888 2893 2898 2904 2910 2915 2920 2925 2930 2935 2940 2944 2948 2953 2957 2961 2964 2967 2970 2973 2976 2979 2982 2986 2990 2994 2999 3003 3007 3010
2845 2845 2845 2846 2846 2846 2845 2845 2845 2844 2844 2843 2843 2842 2842 2841 2840 2840 2839 2838 2838 2838 2838 2839 2840 2841 2842 2842 2843 2844 2845 2846 2847 2848 2850 2852 2854 2857 2862 2866 2869 2870 2873 2877 2882 2887 2891 2897 2902 2907 2913 2917 2922 2927 2931 2935 2940 2945 2950 2954 2957 2961 2964 2967 2970 2973 2976 2979 2983 2987 2992 2996 3000 3003
2842 2842 2843 2843 2843 2843 2843 2843 2842 2842 2842 2841 2841 2840 2840 2839 2838 2837 2837 2836 2836 2836 2837 2837 2837 2838 2839 2840 2840 2841 2842 2844 2846 2847 2848 2849 2851 2854 2857 2860 2863 2866 2869 2873 2876 2881 2887 2892 2894 2899 2904 2909 2913 2918 2923 2927 2932 2937 2942 2946 2950 2953 2957 2960 2963 2967 2970 2974 2977 2980 2984 2988 2992 2996
2840 2840 2840 2840 2840 2840 2840 2840 2840 2840 2840 2839 2839 2839 2838 2838 2837 2836 2835 2835 2835 2835 2835 2835 2836 2836 2837 2838 2838 2840 2842 2843 2844 2845 2846 2847 2849 2851 2853 2856 2860 2863 2866 2869 2871 2876 2883 2885 2887 2892 2897 2900 2905 2910 2914 2918 2923 2928 2933 2937 2941 2945 2949 2953 2957 2960 2963 2967 2970 2973 2976 2980 2984 2988
2837 2837 2837 2837 2837 2837 2837 2837 2837 2838 2838 2838 2838 2837 2837 2836 2836 2835 2835 2834 2834 2834 2834 2834 2835 2835 2835 2836 2837 2839 2840 2841 2842 2843 2844 2846 2847 2849 2851 2854 2857 2860 2862 2864 2867 2872 2876 2878 2881 2887 2890 2892 2897 2902 2904 2909 2914 2919 2923 2928 2932 2937 2941 2945 2949 2953 2956 2959 2962 2966 2969 2973 2976 2980
2833 2834 2834 2834 2834 2834 2834 2834 2834 2834 2835 2835 2836 2835 2835 2835 2834 2834 2834 2833 2833 2833 2833 2833 2834 2834 2834 2835 2836 2837 2838 2840 2841 2841 2843 2845 2846 2848 2849 2852 2854 2856 2859 2861 2862 2866 2871 2874 2877 2881 2883 2885 2890 2893 2896 2900 2905 2910 2914 2919 2923 2928 2932 2936 2940 2944 2948 2951 2955 2958 2962 2965 2968 2972
2830 2830 2831 2831 2831 2832 2832 2832 2832 2832 2832 2833 2833 2833 2833 2833 2833 2832 2832 2832 2832 2832 2832 2833 2833 2833 2834 2834 2835 2836 2837 2838 2839 2840 2842 2844 2845 2846 2847 2850 2852 2854 2856 2858 2860 2863 2867 2870 2872 2875 2878 2880 2883 2886 2889 2893 2897 2901 2906 2910 2914 2919 2923 2927 2931 2935 2939 2943 2946 2950 2953 2956 2960 2962
2826 2827 2828 2828 2829 2829 2829 2829 2829 2829 2829 2829 2830 2831 2831 2831 2831 2831 2830 2830 2830 2831 2831 2832 2832 2832 2833 2833 2834 2835 2836 2837 2837 2838 2840 2842 2843 2844 2846 2848 2850 2852 2855 2858 2859 2861 2864 2866 2867 2870 2872 2875 2878 2881 2883 2887 2890 2894 2898 2901 2905 2910 2913 2917 2921 2925 2929 2933 2937 2941 2945 2948 2950 2952
2823 2824 2825 2826 2826 2827 2827 2827 2827 2827 2827 2826 2827 2828 2828 2829 2829 2828 2828 2829 2829 2829 2830 2830 2831 2831 2831 2832 2832 2833 2834 2835 2836 2837 2839 2840 2841 2843 2845 2847 2849 2851 2854 2857 2858 2859 2862 2863 2865 2867 2868 2870 2874 2875 2877 2881 2885 2887 2890 2894 2898 2901 2904 2908 2912 2916 2921 2924 2928 2932 2935 2938 2941 2943
2820 2821 2822 2823 2824 2824 2824 2825 2825 2825 2825 2824 2824 2825 2826 2826 2826 2826 2826 2827 2827 2827 2828 2829 2829 2830 2830 2831 2831 2832 2833 2834 2835 2836 2838 2840 2841 2842 2844 2846 2848 2851 2854 2856 2856 2858 2860 2861 2863 2864 2865 2867 2869 2871 2873 2877 2879 2881 2884 2887 2890 2893 2896 2900 2904 2908 2912 2915 2919 2922 2925 2929 2932 2934
2816 2818 2819 2820 2821 2821 2822 2822 2822 2822 2823 2822 2822 2822 2823 2823 2823 2823 2823 2824 2824 2825 2826 2826 2827 2828 2829 2830 2830 2831 2833 2834 2835 2836 2838 2839 2841 2842 2844 2846 2847 2850 2852 2854 2855 2856 2857 2859 2861 2862 2863 2865 2866 2868 2870 2873 2874 2876 2879 2881 2884 2886 2889 2893 2896 2900 2903 2907 2910 2913 2916 2919 2922 2925
2813 2815 2816 2817 2818 2818 2819 2819 2819 2820 2820 2820 2820 2820 2820 2820 2820 2820 2821 2821 2821 2822 2823 2824 2825 2826 2827 2828 2829 2830 2832 2833 2835 2835 2837 2838 2839 2840 2842 2844 2846 2848 2850 2851 2852 2853 2855 2857 2859 2860 2862 2863 2864 2865 2868 2870 2871 2872 2874 2876 2879 2881 2883 2887 2890 2893 2896 2898 2901 2904 2907 2910 2913 2916
2810 2811 2813 2814 2814 2815 2816 2817 2817 2817 2817 2817 2817 2817 2817 2817 2817 2817 2817 2818 2818 2819 2820 2821 2822 2823 2825 2826 2827 2829 2831 2832 2833 2834 2835 2836 2836 2838 2839 2841 2843 2845 2847 2848 2850 2851 2853 2855 2857 2858 2860 2861 2862 2864 2866 2868 2869 2870 2871 2873 2875 2877 2879 2882 2885 2887 2889 2891 2894 2896 2898 2902 2905 2908
2806 2808 2809 2810 2810 2812 2813 2813 2814 2814 2814 2814 2814 2814 2815 2815 2815 2814 2814 2814 2815 2815 2816 2817 2819 2820 2821 2823 2824 2826 2828 2829 2830 2830 2832 2833 2834 2835 2837 2838 2840 2842 2844 2846 2848 2849 2851 2853 2855 2856 2858 2859 2860 2862 2864 2866 2867 2868 2869 2871 2872 2874 2876 2878 2880 2882 2884 2886 2888 2890 2892 2894 2897 2899
2802 2804 2805 2806 2807 2808 2809 2810 2811 2811 2811 2811 2811 2811 2812 2812 2812 2812 2811 2811 2812 2812 2813 2814 2815 2816 2818 2819 2820 2822 2823 2824 2826 2827 2828 2829 2830 2832 2833 2835 2837 2839 2841 2843 2845 2846 2848 2850 2852 2854 2855 2857 2858 2860 2862 2863 2865 2866 2867 2868 2870 2871 2873 2875 2877 2879 2880 2882 2883 2885 2886 2888 2890 2891
2798 2799 2800 2802 2803 2805 2805 2806 2807 2808 2808 2808 2808 2808 2808 2809 2809 2809 2808 2808 2809 2809 2810 2810 2811 2812 2814 2815 2816 2817 2818 2820 2822 2823 2824 2825 2826 2828 2829 2830 2832 2835 2838 2840 2841 2843 2845 2847 2849 2851 2853 2854 2856 2857 2859 2860 2862 2863 2865 2866 2867 2869 2870 2872 2873 2875 2877 2878 2879 2880 2881 2883 2884 2885
2794 2795 2796 2798 2799 2801 2802 2803 2803 2804 2804 2805 2805 2805 2805 2805 2805 2805 2805 2805 2805 2806 2806 2807 2808 2809 2809 2810 2812 2813 2814 2816 2817 2819 2820 2821 2822 2824 2825 2826 2828 2831 2833 2835 2837 2839 2841 2844 2846 2848 2850 2851 2853 2855 2856 2857 2859 2861 2862 2863 2865 2866 2868 2869 2870 2872 2873 2874 2875 2876 2877 2878 2879 2880
2789 2791 2792 2794 2796 2797 2798 2799 2800 2800 2801 2801 2802 2802 2802 2802 2802 2802 2803 2803 2803 2803 2803 2803 2804 2805 2805 2806 2807 2808 2809 2811 2813 2814 2815 2816 2818 2819 2820 2821 2824 2827 2829 2831 2833 2836 2838 2840 2842 2844 2846 2848 2850 2851 2853 2854 2856 2858 2859 2860 2862 2864 2865 2866 2867 2868 2869 2870 2871 2872 2873 2874 2874 2875
2784 2786 2788 2790 2792 2793 2794 2795 2796 2797 2797 2798 2799 2799 2799 2799 2799 2800 2800 2800 2800 2800 2800 2800 2800 2801 2801 2802 2803 2804 2805 2806 2807 2809 2810 2812 2813 2814 2816 2817 2819 2822 2825 2827 2829 2831 2833 2836 2838 2840 2842 2844 2846 2847 2849 2851 2853 2855 2856 2858 2859 2860 2862 2863 2864 2865 2866 2866 2867 2868 2868 2869 2870 2870
2779 2782 2784 2786 2788 2789 2790 2791 2792 2793 2794 2795 2795 2796 2796 2796 2796 2796 2796 2797 2797 2797 2797 2797 2797 2797 2798 2799 2799 2800 2800 2801 2802 2804 2805 2807 2808 2809 2811 2812 2814 2817 2820 2823 2825 2827 2829 2832 2833 2835 2837 2839 2841 2843 2846 2848 2850 2852 2853 2855 2856 2857 2859 2860 2861 2862 2862 2863 2863 2864 2864 2865 2865 2865
2775 2778 2780 2782 2784 2785 2786 2788 2789 2790 2791 2791 2792 2792 2793 2793 2793 2793 2793 2794 2794 2794 2794 2794 2794 2795 2795 2796 2796 2797 2797 2798 2798 2799 2800 2802 2803 2805 2806 2808 2810 2813 2816 2818 2821 2823 2825 2827 2829 2831 2833 2835 2837 2839 2842 2845 2847 2848 2850 2851 2852 2853 2855 2856 2857 2858 2859 2860 2860 2860 2860 2861 2861 2861
2770 2773 2775 2778 2780 2782 2782 2784 2785 2786 2787 2788 2788 2789 2789 2790 2790 2790 2791 2791 2791 2791 2791 2791 2792 2792 2792 2793 2793 2794 2794 2794 2795 2795 2796 2797 2799 2801 2802 2804 2806 2809 2812 2815 2817 2819 2821 2823 2825 2827 2829 2831 2833 2835 2838 2841 2843 2844 2846 2847 2848 2849 2851 2852 2853 2854 2855 2856 2856 2857 2857 2858 2858 2858
2766 2768 2770 2773 2776 2777 2778 2780 2781 2782 2783 2784 2785 2786 2786 2787 2787 2787 2788 2788 2788 2788 2789 2789 2789 2790 2790 2790 2791 2791 2791 2792 2792 2792 2792 2794 2795 2797 2799 2801 2804 2806 2809 2811 2813 2815 2817 2819 2821 2823 2825 2826 2828 2831 2835 2838 2840 2841 2842 2843 2844 2845 2846 2848 2849 2850 2851 2852 2852 2853 2854 2855 2855 2855
2760 2763 2766 2769 2771 2773 2774 2776 2777 2779 2780 2781 2782 2782 2783 2784 2784 2784 2785 2785 2786 2786 2786 2787 2787 2788 2788 2788 2789 2789 2789 2789 2789 2789 2790 2791 2793 2794 2796 2799 2801 2803 2805 2807 2809 2811 2813 2816 2818 2820 2822 2823 2826 2829 2832 2834 2835 2836 2837 2838 2840 2841 2842 2844 2845 2846 2847 2848 2849 2850 2851 2851 2852 2853
2755 2758 2761 2764 2767 2768 2770 2772 2774 2775 2776 2777 2778 2779 2780 2781 2781 2781 2782 2783 2783 2784 2784 2784 2785 2785 2786 2786 2787 2787 2788 2788 2788 2788 2788 2789 2791 2793 2795 2797 2799 2801 2803 2804 2806 2808 2811 2814 2816 2818 2819 2821 2824 2826 2828 2829 2830 2831 2833 2835 2836 2837 2839 2840 2842 2843 2844 2845 2846 2847 2848 2848 2849 2850
2752 2754 2757 2760 2762 2764 2766 2768 2770 2772 2773 2774 2775 2776 2777 2778 2778 2779 2779 2780 2780 2781 2781 2782 2783 2783 2784 2784 2785 2786 2786 2786 2786 2787 2787 2788 2790 2791 2793 2795 2797 2798 2800 2802 2804 2807 2809 2812 2814 2816 2817 2819 2821 2822 2824 2825 2827 2829 2831 2832 2833 2835 2836 2837 2838 2840 2841 2842 2843 2844 2845 2845 2846 2847
2747 2750 2753 2755 2758 2759 2762 2764 2766 2768 2769 2771 2772 2773 2774 2775 2775 2776 2776 2777 2778 2778 2779 2780 2780 2781 2782 2782 2783 2784 2784 2784 2785 2785 2786 2787 2788 2790 2791 2793 2795 2797 2799 2801 2803 2806 2808 2810 2811 2813 2815 2816 2818 2820 2821 2823 2825 2827 2828 2830 2831 2832 2833 2835 2836 2837 2838 2839 2840 2841 2842 2842 2843 2844
2743 2746 2748 2751 2753 2755 2758 2760 2762 2764 2766 2767 2769 2770 2771 2772 2772 2773 2773 2774 2775 2776 2776 2777 2778 2779 2779 2780 2781 2782 2782 2783 2784 2784 2785 2786 2787 2789 2790 2792 2794 2796 2798 2800 2802 2804 2806 2807 2809 2811 2813 2814 2816 2818 2819 2821 2823 2824 2826 2827 2828 2830 2831 2832 2833 2834 2835 2836 2837 2838 2839 2840 2840 2841
2738 2741 2744 2746 2749 2752 2754 2757 2759 2761 2762 2764 2765 2767 2768 2769 2769 2770 2771 2771 2772 2773 2774 2774 2775 2776 2777 2778 2779 2780 2781 2781 2782 2783 2784 2785 2787 2788 2789 2791 2793 2795 2797 2798 2800 2802 2804 2805 2807 2809 2811 2813 2814 2816 2817 2819 2820 2821 2823 2824 2825 2827 2828 2829 2830 2831 2832 2833 2834 2835 2836 2837 2837 2838
2734 2737 2739 2742 2745 2748 2751 2753 2755 2757 2759 2761 2762 2764 2765 2766 2767 2767 2768 2768 2769 2770 2770 2772 2773 2774 2775 2776 2777 2778 2779 2780 2781 2782 2783 2784 2786 2787 2788 2790 2792 2793 2795 2797 2798 2800 2802 2804 2805 2807 2809 2810 2812 2813 2814 2816 2817 2818 2820 2821 2822 2824 2825 2826 2827 2828 2829 2830 2831 2833 2834 2834 2834 2835
Wind_Speed
27 28 28 29 29 30 31 32 33 34 34 35 35 36 36 37 37 37 37 37 39 42 44 47 52 56 58 60 63 64 63 62 60 59 59 58 56 56 56 56 57 58 60 61 59 56 53 52 52 52 51 49 47 47 49 49 45 44 43 41 42 43 42 40 39 39 38 37 35 33 32 33 32 30
28 29 29 29 29 29 30 31 32 33 34 34 35 35 36 37 37 37 38 37 36 38 41 43 47 53 58 60 62 64 66 65 64 62 61 60 59 58 56 55 55 56 58 60 59 58 56 56 55 55 54 52 50 48 48 49 49 47 46 44 42 42 43 43 42 41 40 40 39 36 35 35 34 32
27 28 29 29 29 30 30 31 31 32 33 34 34 35 35 36 37 37 38 37 36 36 38 41 42 47 54 59 61 63 66 67 67 66 64 62 62 61 59 56 55 54 56 57 58 57 57 58 58 57 56 55 54 53 50 50 50 51 50 49 46 43 41 42 44 42 41 42 42 40 39 37 36 35
25 25 26 27 28 29 30 30 31 31 32 33 34 34 34 35 36 36 37 37 36 35 36 38 39 42 47 54 59 61 64 67 69 69 67 65 64 63 62 60 57 55 55 56 57 57 56 58 59 59 59 58 57 56 54 53 52 53 53 52 50 47 44 41 41 42 42 43 45 44 43 41 39 39
22 23 24 25 26 27 28 28 29 30 31 32 33 33 33 33 34 35 36 37 37 36 35 36 37 38 42 48 54 59 62 65 68 70 70 69 67 65 64 63 60 57 55 55 57 57 56 56 58 59 60 60 60 58 57 56 55 55 56 56 54 52 51 46 41 40 41 42 44 46 46 46 44 43
20 21 22 23 24 25 26 26 27 28 29 31 31 32 32 32 33 33 34 36 36 36 35 34 35 36 39 42 48 55 60 62 65 68 71 71 70 68 66 65 64 61 58 56 56 57 56 56 56 57 59 60 61 61 60 59 58 58 58 59 58 56 55 54 49 44 41 40 41 43 46 49 48 45
19 20 20 22 23 24 24 24 25 26 27 28 30 30 31 31 31 32 33 34 35 35 35 34 34 34 36 39 43 49 56 60 62 65 68 71 72 71 69 67 66 64 62 59 56 56 57 57 57 56 57 58 60 62 62 62 61 60 60 61 61 60 59 59 58 53 48 43 41 40 43 47 48 47
18 19 19 20 22 23 23 23 24 25 26 27 28 28 29 29 30 30 31 33 34 34 34 33 33 33 34 36 38 43 50 56 60 63 66 68 71 72 71 70 68 66 65 63 60 58 58 58 58 58 58 58 59 60 62 63 63 61 62 62 62 62 61 61 61 60 56 52 46 43 41 42 44 46
17 18 18 19 21 21 21 22 23 24 25 25 26 26 26 27 28 28 30 31 32 33 32 32 33 33 32 33 35 38 44 50 56 61 64 65 67 70 72 71 70 69 67 66 64 62 60 59 60 60 60 59 60 60 61 63 64 63 63 63 61 61 62 62 61 60 60 57 54 50 47 44 42 43
17 17 17 18 19 20 20 21 22 23 23 23 24 24 24 25 26 27 27 28 30 31 31 31 31 32 31 31 32 34 38 43 50 56 60 63 65 67 70 71 72 72 70 69 67 65 63 62 61 61 61 61 61 61 62 62 63 64 64 64 61 59 60 61 58 56 55 56 55 54 53 50 47 43
16 16 16 16 17 18 19 20 20 21 21 21 22 22 23 24 25 25 26 27 28 29 29 29 29 30 30 29 30 31 34 38 43 49 54 59 61 64 67 69 71 73 73 71 70 68 67 65 64 63 62 63 63 62 63 63 63 64 64 65 63 58 58 60 57 53 50 49 51 53 54 54 52 49
16 16 15 15 15 15 16 17 18 19 19 20 20 22 23 24 24 25 25 25 26 26 27 27 27 27 28 27 27 28 30 33 37 42 48 54 57 60 64 67 69 72 73 73 72 71 70 68 67 66 64 64 64 63 64 64 64 64 64 65 65 61 58 58 58 55 51 48 47 49 52 53 52 51
16 15 14 14 14 13 13 14 15 17 17 18 19 21 22 23 23 23 23 24 24 23 24 24 24 24 25 25 25 25 27 30 32 36 43 50 53 56 62 65 67 69 71 74 74 73 72 71 70 69 67 65 65 65 65 65 65 65 65 65 65 64 61 59 58 57 55 51 48 48 49 51 50 49
17 15 13 13 13 12 11 11 12 13 14 15 16 18 19 19 20 20 20 20 20 20 20 20 20 21 21 22 23 22 23 27 29 32 38 45 48 52 58 62 63 65 68 71 73 74 74 74 73 72 70 68 67 66 66 66 66 66 66 66 65 65 64 62 60 59 57 55 53 50 49 49 49 48
17 15 13 14 13 11 10 9 10 11 12 12 12 13 15 16 16 16 16 16 17 17 16 16 17 16 17 19 22 21 21 24 27 29 33 39 43 48 55 58 59 61 64 66 69 72 74 75 75 74 73 72 70 69 68 67 68 68 67 67 67 66 66 65 63 62 60 58 56 54 51 50 50 49
18 16 14 14 14 12 10 9 9 10 10 10 10 11 12 12 13 13 13 13 13 13 13 13 12 12 14 17 20 20 20 22 24 26 29 33 37 42 49 52 53 55 60 64 67 69 72 74 76 76 76 75 73 72 71 70 70 69 69 69 69 68 67 67 66 64 63 61 59 57 55 53 52 51
19 18 16 15 15 14 11 10 10 10 9 9 9 9 10 11 10 10 10 11 11 12 11 9 9 11 13 15 18 20 21 22 22 23 25 27 31 35 41 46 47 49 55 61 65 67 70 72 75 76 76 77 76 75 75 74 73 72 71 71 70 70 70 69 68 67 66 64 63 61 59 57 56 54
19 19 17 15 15 15 13 12 11 10 9 9 8 8 9 9 9 9 8 8 9 10 9 8 9 11 12 14 18 20 20 19 18 19 21 23 27 30 34 39 42 44 50 56 61 64 66 67 70 72 73 75 77 77 78 77 76 75 74 73 73 72 72 71 70 69 68 67 66 65 63 62 60 59
18 18 17 15 14 15 14 14 13 12 11 9 8 8 8 8 7 8 8 7 7 8 8 9 10 11 12 14 16 17 15 15 16 17 19 20 23 25 28 32 36 38 42 49 54 58 59 60 64 68 69 71 74 76 78 79 79 79 78 77 76 75 75 74 73 72 72 70 69 69 68 66 65 63
17 17 17 15 14 14 14 15 15 14 12 11 9 8 8 7 6 6 6 6 6 6 7 9 11 12 14 15 15 14 14 15 16 17 18 18 19 21 22 24 27 28 32 38 45 50 51 52 58 63 65 67 70 72 74 76 78 79 80 80 80 79 78 77 76 76 75 74 73 72 71 70 69 68
17 17 16 15 13 13 14 15 15 15 13 11 10 9 8 7 5 6 6 5 4 5 6 9 11 12 14 15 15 14 15 15 16 18 18 16 15 17 17 18 19 20 23 28 35 42 45 45 50 56 58 61 66 68 69 72 74 76 78 79 80 81 81 80 79 79 78 78 77 76 75 75 73 72
17 17 16 16 14 13 13 14 15 15 14 11 10 9 9 7 5 7 7 5 4 5 7 9 11 12 13 14 15 15 15 17 18 18 16 15 15 16 15 15 16 18 21 23 26 33 36 35 40 47 50 53 59 62 64 66 69 71 73 75 77 78 79 81 81 81 81 80 80 80 79 78 78 77
18 18 17 17 16 14 14 14 14 15 15 13 10 10 10 8 7 9 11 9 7 7 8 10 12 13 15 16 16 16 17 19 20 19 19 19 19 18 17 16 16 18 20 19 19 23 25 24 29 37 40 45 50 53 56 60 63 65 67 69 71 73 75 77 78 80 81 81 81 81 81 81 81 81
19 19 19 18 16 14 14 14 14 14 14 15 13 10 9 7 8 12 14 12 11 10 11 12 14 15 17 18 19 19 20 21 22 21 20 22 22 20 18 16 15 16 18 18 17 19 19 18 20 25 29 34 37 39 45 51 54 57 60 62 64 66 69 71 73 75 77 78 79 80 80 81 81 82
19 20 20 18 16 15 15 13 13 12 13 14 15 12 8 7 10 14 16 15 15 15 13 14 15 16 18 19 20 21 22 23 24 23 20 20 20 19 17 14 14 17 19 18 17 18 18 17 16 17 19 23 26 28 32 38 44 48 51 53 56 58 61 64 67 69 71 73 76 77 78 79 80 80
20 20 20 18 17 17 16 14 13 13 14 15 15 15 12 9 11 14 16 18 19 18 17 16 16 16 18 20 20 21 22 23 24 23 20 17 17 17 15 14 16 19 21 20 19 19 19 18 17 17 18 18 21 23 24 27 32 36 40 44 47 50 53 57 59 62 64 67 69 72 74 76 77 78
19 20 20 19 18 18 16 15 15 15 15 16 16 15 15 14 13 13 15 18 20 20 20 19 18 17 18 19 20 20 21 22 23 23 21 20 19 19 18 17 19 21 22 22 22 22 21 20 18 19 20 19 19 20 22 22 23 26 30 34 37 40 44 48 51 54 56 59 62 64 68 71 73 75
20 19 19 20 20 19 18 17 17 16 17 18 17 17 16 16 15 14 14 16 18 20 21 21 20 19 18 19 19 18 18 20 22 23 24 24 23 23 22 21 22 24 24 24 23 23 23 22 19 19 21 21 20 20 21 22 22 22 23 26 28 32 35 38 41 44 46 49 53 56 59 63 66 68
21 19 20 21 22 20 19 18 18 18 18 20 20 19 18 16 15 15 15 15 17 19 20 20 20 20 20 20 19 19 18 20 21 23 25 26 26 26 25 25 25 26 26 26 25 24 25 24 21 19 20 21 21 20 20 22 23 21 21 22 23 24 27 29 31 33 36 38 42 46 49 53 57 60
22 21 22 22 22 20 19 19 19 19 20 21 21 21 20 17 15 14 15 15 16 17 18 20 20 20 20 21 21 21 22 23 24 25 26 27 27 27 27 27 28 28 28 28 26 26 26 25 23 22 21 21 21 22 22 22 22 22 21 21 21 21 21 22 24 26 28 30 32 35 39 42 46 50
24 24 24 23 21 20 19 19 19 19 20 21 22 22 21 18 15 14 15 15 16 17 17 19 20 20 21 22 23 23 25 25 26 28 29 29 29 29 29 30 30 30 30 30 29 28 27 26 25 24 23 22 21 22 22 21 21 20 20 20 21 21 21 20 21 22 24 25 27 29 31 33 35 39
26 26 26 23 22 20 19 19 19 19 20 21 21 21 21 19 16 15 15 15 16 17 18 18 19 20 21 22 23 24 25 26 27 28 30 31 31 31 31 32 32 31 31 32 32 31 29 28 27 26 25 24 22 22 21 20 19 18 18 18 19 20 20 20 20 20 21 23 25 26 27 28 29 32
28 28 26 24 22 21 20 20 19 19 19 20 20 20 20 18 16 15 15 15 16 17 17 18 19 20 21 22 23 24 25 26 27 28 30 31 32 33 33 33 33 32 31 32 33 33 32 30 30 29 28 27 25 24 23 22 21 19 19 18 17 18 18 18 18 18 19 20 22 23 25 26 26 28
31 29 26 24 23 22 21 21 20 20 20 19 19 19 18 17 15 14 14 14 15 16 17 18 19 20 21 22 22 23 24 25 26 27 28 29 31 33 34 34 33 32 31 31 32 33 33 32 32 32 31 30 29 27 26 25 23 21 20 19 19 19 19 19 18 18 18 19 20 22 24 25 25 26
34 30 27 25 24 23 22 22 21 21 20 19 18 17 16 16 15 14 13 13 14 15 16 16 17 18 18 18 19 20 21 22 24 26 27 28 29 31 33 34 35 33 30 30 30 31 32 32 33 34 34 34 33 31 29 28 26 24 22 22 22 22 21 21 21 20 20 20 21 22 22 23 24 24
37 33 30 27 25 24 24 23 22 21 21 19 17 16 16 15 14 14 13 13 13 14 15 15 15 15 16 16 17 19 20 20 21 22 24 26 28 29 29 31 33 32 30 28 28 29 30 32 33 35 35 35 35 34 32 30 28 26 25 25 25 25 24 23 23 23 22 22 22 22 22 22 23 22
37 35 33 31 27 26 25 24 23 22 21 19 17 16 16 15 15 14 13 13 13 13 13 14 15 15 15 15 16 16 17 18 20 21 22 23 26 27 26 26 28 29 28 27 26 27 29 31 33 33 34 35 36 35 33 31 30 29 28 27 27 27 26 25 24 25 24 23 22 21 20 21 21 20
36 36 36 33 29 27 27 25 24 22 21 19 17 16 15 15 15 14 14 13 13 13 13 14 14 14 13 13 12 12 12 13 16 18 19 20 23 25 25 24 23 23 24 25 25 27 28 29 30 30 32 34 35 35 33 31 29 28 28 28 28 28 27 26 25 25 24 22 22 21 20 20 20 20
36 36 35 32 29 28 28 26 24 23 21 19 17 16 15 15 15 15 14 14 13 13 14 14 13 12 11 10 10 9 9 9 10 13 14 17 19 21 22 22 21 21 22 24 25 26 27 27 27 27 29 30 31 30 28 27 26 26 27 27 27 26 25 24 24 24 23 22 22 21 20 21 21 21
35 34 33 30 29 29 29 27 25 23 21 19 17 16 15 15 15 15 15 14 14 13 14 14 12 11 11 11 10 10 9 8 8 9 11 13 16 18 20 20 19 20 21 23 24 24 23 23 23 23 24 25 25 25 24 23 23 24 24 25 24 24 22 21 21 21 22 22 22 21 21 21 22 21
34 33 31 29 28 29 29 28 25 23 21 19 17 16 15 15 14 14 15 15 15 15 14 13 12 12 12 12 12 12 11 9 8 9 10 12 14 16 18 18 19 20 21 21 22 22 20 19 19 20 22 23 23 23 23 22 21 20 20 20 20 20 19 18 17 18 19 20 20 21 20 20 20 19
33 32 30 28 29 30 30 28 25 24 22 19 17 16 16 15 14 14 15 16 16 16 16 15 13 14 14 13 12 13 11 9 8 8 10 12 13 15 17 18 18 18 19 19 19 19 19 18 18 18 19 20 21 21 21 20 19 18 18 18 18 19 19 19 18 19 21 21 21 21 20 19 19 18
33 31 29 29 30 30 29 28 26 24 21 19 18 17 16 15 15 14 15 16 16 17 17 16 15 16 15 13 12 12 11 10 10 10 11 12 13 13 15 17 17 16 17 18 18 19 20 19 17 17 18 19 19 19 19 18 18 18 18 18 18 19 21 21 22 22 22 22 21 20 19 18 19 18
32 30 30 30 30 29 29 28 26 23 21 19 18 17 16 15 15 15 15 15 16 17 17 17 17 18 17 14 12 12 12 12 12 12 12 13 13 13 14 15 16 16 17 17 17 18 19 19 18 17 18 19 19 19 18 18 18 19 20 20 20 20 22 24 25 26 25 24 24 22 19 19 19 19
31 31 31 31 29 29 28 27 25 23 21 20 18 17 16 15 15 15 15 15 16 17 18 18 18 18 18 16 14 12 13 14 14 14 13 13 14 14 14 14 15 15 16 16 15 16 17 18 18 19 19 19 20 20 19 19 19 20 21 21 22 23 24 25 27 27 27 27 27 25 21 20 20 20
Wind_Direction
275 273 272 270 269 269 269 269 269 269 269 268 268 267 266 265 264 264 264 264 262 258 250 241 235 233 231 230 229 231 234 236 236 235 234 232 230 231 231 232 234 235 234 233 233 234 232 232 232 232 233 234 233 232 231 230 229 228 227 227 227 225 221 215 212 211 210 209 210 210 213 216 216 216
273 273 271 270 269 268 268 268 269 270 270 270 270 269 268 267 265 264 265 265 264 262 257 249 241 235 232 230 229 228 230 232 234 235 234 233 232 232 231 231 232 234 236 235 234 233 232 233 235 235 236 237 237 235 233 232 232 232 229 226 227 229 226 222 216 212 211 211 210 209 212 215 215 215
273 272 271 269 268 266 266 266 267 268 269 270 270 271 270 269 267 265 264 265 265 264 260 254 247 240 235 232 229 228 228 228 231 233 233 233 233 232 232 231 230 231 234 235 236 234 232 232 234 236 238 239 240 239 237 235 235 235 232 228 227 227 227 226 222 216 211 209 211 213 213 213 212 211
274 273 271 269 268 266 265 265 265 266 267 269 270 270 271 270 269 266 264 263 264 265 263 258 252 246 240 235 231 229 228 228 228 230 231 232 232 232 232 232 230 229 230 232 234 235 233 232 232 233 235 238 239 241 240 240 240 239 237 233 231 230 227 224 221 220 217 212 211 214 214 213 212 210
275 274 272 270 267 266 264 264 264 265 265 266 267 268 270 271 270 268 265 262 262 263 264 261 255 249 244 238 234 231 229 228 228 228 229 230 231 231 232 232 232 229 228 228 231 233 233 232 231 230 231 234 236 239 241 242 243 243 240 238 237 236 233 228 220 218 220 218 216 216 214 214 214 214
278 276 273 271 267 265 264 263 263 264 264 264 265 266 268 270 270 270 267 263 261 261 262 262 258 252 246 241 236 234 231 229 229 228 228 228 229 230 231 232 232 232 229 227 227 230 231 231 232 230 229 230 232 235 239 241 243 243 243 242 242 240 237 235 231 224 222 220 219 219 217 217 218 218
283 281 277 272 268 266 265 264 263 263 263 262 263 264 266 267 269 270 269 265 262 259 259 260 259 255 249 243 239 235 233 231 230 229 228 228 228 229 229 230 231 232 232 230 227 227 229 229 230 231 230 229 230 232 235 238 240 241 242 243 244 242 240 240 239 235 230 224 220 219 218 218 220 221
289 287 281 274 269 267 266 265 264 264 263 262 262 262 264 266 267 268 269 267 265 261 257 256 257 256 252 246 242 237 234 232 231 230 229 229 228 228 229 229 230 231 232 232 230 227 227 228 228 229 229 229 229 230 232 234 236 238 239 242 244 243 242 243 244 242 239 234 228 222 219 218 218 219
294 291 286 278 272 269 267 266 265 265 264 263 262 263 263 265 266 267 268 269 268 264 259 254 254 255 253 249 244 240 236 234 232 231 231 230 230 229 229 229 230 230 231 232 232 230 228 227 227 227 228 229 229 229 230 231 233 235 236 239 241 242 241 243 246 247 246 244 239 233 226 223 220 217
295 294 289 283 278 273 270 269 268 267 266 265 264 264 264 265 266 267 269 270 269 267 263 256 251 251 252 250 245 241 238 235 233 232 231 231 231 231 229 229 229 230 230 231 232 231 230 228 228 227 227 228 228 229 229 230 231 233 234 237 239 239 239 241 243 245 248 249 247 244 238 233 229 224
292 294 291 285 281 277 273 271 270 268 267 265 264 264 264 265 266 268 269 270 270 268 265 260 253 249 249 249 246 242 240 236 233 232 232 231 231 231 231 230 229 229 230 231 231 232 231 230 229 228 227 227 228 228 229 229 230 232 233 235 237 237 237 238 239 239 241 245 248 249 246 243 239 236
287 290 291 286 281 279 276 273 271 269 268 267 266 266 267 268 269 270 270 271 271 270 267 262 256 249 246 247 246 244 241 238 234 233 232 230 231 232 231 231 230 230 230 230 231 232 232 231 230 230 229 228 228 228 228 229 230 231 232 234 236 237 236 236 237 236 235 236 241 246 248 247 245 244
279 283 288 287 281 278 278 277 275 273 272 272 271 271 272 273 273 272 272 271 271 269 266 262 258 251 245 243 244 243 241 237 234 233 232 229 230 231 232 231 231 231 231 231 231 231 232 232 232 231 230 230 230 229 229 229 230 231 232 233 235 237 237 236 236 236 235 234 235 239 244 246 246 245
272 276 283 285 280 275 277 279 280 279 279 279 280 280 280 280 278 275 273 272 269 266 264 260 257 251 243 239 240 241 240 236 234 233 232 229 228 230 231 231 232 232 232 232 232 232 232 232 232 232 232 231 231 231 230 230 231 231 232 233 234 236 237 238 237 237 237 236 235 235 237 241 243 243
267 271 277 281 278 272 271 275 278 281 284 287 290 292 291 289 286 283 278 272 266 261 258 256 255 250 241 236 236 236 237 236 234 232 231 229 228 228 229 230 232 233 233 233 234 234 233 232 232 233 233 232 232 232 232 231 232 232 233 233 234 235 236 238 239 239 238 238 237 236 235 236 238 240
269 270 272 275 275 271 267 268 273 278 284 291 297 299 300 297 294 291 285 276 265 255 251 250 251 246 235 231 233 233 234 235 233 230 230 230 229 228 227 228 230 232 233 233 234 234 234 234 233 233 233 233 233 233 233 233 233 233 233 234 235 236 236 237 238 239 240 240 240 239 238 237 236 237
268 268 266 267 269 270 268 267 270 274 281 290 299 304 306 307 307 302 290 278 264 251 245 241 238 234 226 224 227 229 230 231 231 230 228 228 228 226 225 225 227 229 232 233 234 234 235 235 235 234 234 234 234 234 234 234 234 234 234 235 236 237 238 238 239 240 241 241 241 241 241 240 239 239
260 260 257 258 263 267 269 269 271 275 280 286 295 303 307 314 322 322 309 292 271 253 238 223 219 218 214 218 224 227 229 231 231 229 225 225 225 224 223 223 224 226 231 234 235 235 235 236 237 237 236 236 236 235 235 235 235 235 235 236 236 237 238 239 240 241 241 242 242 243 243 243 242 242
252 252 251 253 259 264 267 268 269 271 275 278 285 293 299 309 323 327 323 311 290 267 239 218 212 206 203 211 221 225 226 226 226 225 223 224 225 223 223 223 224 225 228 232 234 235 235 237 238 238 238 239 238 237 237 237 236 236 237 237 237 238 238 239 241 242 242 243 243 243 244 244 244 244
245 249 252 255 259 263 266 268 269 268 269 271 275 278 282 294 307 313 317 315 298 274 240 220 211 201 201 208 214 215 214 215 217 220 221 222 224 223 222 222 222 223 225 229 232 234 234 236 237 238 239 240 240 239 239 239 238 238 238 238 239 239 239 240 240 241 242 243 244 244 244 245 245 245
243 250 255 259 263 266 268 270 272 273 272 271 270 270 270 276 285 287 292 303 297 271 239 221 214 206 205 210 213 210 205 204 208 215 219 217 217 219 218 215 214 214 216 223 229 231 232 234 236 237 239 240 241 241 242 241 240 240 239 239 240 240 240 241 241 242 242 243 244 245 245 245 245 246
244 251 256 260 265 269 271 272 273 275 276 273 268 266 265 264 264 263 264 263 257 246 230 219 215 210 207 211 215 212 204 198 201 208 208 201 203 210 210 206 203 202 205 213 225 230 231 233 235 236 238 239 240 242 243 243 243 242 242 242 241 241 241 242 242 243 243 243 243 244 245 246 246 247
240 247 252 258 262 266 269 272 273 274 275 275 269 262 259 257 252 252 254 249 234 225 220 219 219 213 207 208 212 211 206 201 202 204 197 191 200 210 208 202 201 200 199 202 215 225 227 231 235 235 237 239 240 241 243 243 244 244 244 244 244 243 243 243 243 243 243 244 244 244 245 245 246 247
232 238 245 252 256 258 260 264 269 273 276 279 276 265 251 242 241 248 253 254 246 233 222 221 223 220 215 212 211 210 207 204 207 209 202 196 203 212 210 205 201 195 190 194 210 221 221 225 232 234 236 238 239 240 242 242 243 245 245 245 245 246 245 245 245 244 244 244 244 245 245 245 246 247
226 230 238 245 249 250 252 255 263 270 274 278 281 278 262 232 228 239 246 249 249 244 234 227 225 223 223 222 218 216 213 209 211 217 216 209 211 216 213 207 197 186 184 195 213 221 218 219 222 220 222 229 232 234 237 239 241 242 243 244 245 246 246 246 246 246 246 246 245 246 246 246 246 247
223 225 231 236 239 244 249 254 260 266 268 271 276 281 280 260 241 239 241 243 245 246 243 239 232 226 226 228 226 225 223 217 215 220 223 220 219 219 216 210 198 187 188 198 208 210 210 213 216 213 211 217 223 224 225 230 234 236 238 240 242 243 244 246 246 247 247 247 247 247 247 247 247 247
223 220 223 228 233 241 248 253 259 264 268 270 272 274 277 275 266 254 247 245 246 246 246 245 241 234 229 229 229 228 226 223 221 223 224 223 222 220 217 213 204 196 198 206 209 207 207 209 215 219 216 214 217 216 213 214 222 227 231 234 236 238 241 243 244 246 247 248 248 248 248 248 248 248
224 218 217 222 230 238 244 249 256 261 266 268 269 269 269 271 272 267 259 252 249 247 247 247 246 242 236 232 230 228 224 222 221 222 223 224 226 226 223 218 210 204 207 212 212 210 211 213 217 222 222 220 219 217 212 209 212 218 223 228 233 236 239 241 242 244 245 246 247 248 249 249 250 250
226 221 219 223 229 235 241 246 253 259 264 266 266 266 265 264 266 268 265 260 255 250 248 247 246 245 243 240 236 231 226 223 222 222 222 224 226 228 228 226 220 213 213 215 214 213 215 218 220 222 223 223 222 219 214 212 214 218 221 224 229 234 236 238 240 242 243 245 247 248 249 250 251 251
230 228 227 227 229 233 238 245 251 256 261 264 265 265 264 263 264 266 266 264 260 256 253 250 247 244 241 240 238 235 230 227 226 227 227 227 227 227 229 230 228 222 219 219 219 218 219 220 222 222 221 221 219 218 219 219 218 221 223 224 226 230 233 235 236 238 240 242 245 247 248 249 251 252
233 233 233 232 232 234 239 245 251 255 258 260 263 264 265 264 264 267 269 267 264 261 257 253 250 247 243 240 238 237 235 232 230 231 233 233 232 230 230 231 230 227 225 224 223 224 223 223 223 224 224 223 220 218 221 222 220 220 223 225 224 226 230 234 234 235 237 239 241 244 246 247 248 250
235 235 235 235 236 239 243 247 252 255 257 258 259 260 261 262 263 266 270 270 268 264 261 257 255 252 250 246 243 241 240 237 234 233 235 237 238 236 235 234 232 229 228 227 227 228 227 226 226 227 228 228 225 223 224 224 220 220 224 226 225 225 229 234 237 238 240 242 243 245 246 248 248 249
237 237 237 237 238 240 244 249 253 256 257 257 256 255 255 256 258 262 265 268 269 267 263 261 258 256 254 252 250 248 246 244 241 238 236 237 239 239 240 239 236 232 230 229 229 230 230 229 228 229 230 230 230 229 229 227 225 226 229 231 230 230 232 237 242 245 248 250 251 249 248 250 254 256
238 238 238 238 239 240 243 248 252 254 255 255 252 249 249 251 254 258 261 265 268 268 266 264 261 258 256 254 252 251 250 249 247 244 240 238 237 238 239 240 239 236 232 229 228 230 231 230 229 230 231 232 232 232 232 232 233 234 236 237 238 240 242 246 250 254 258 261 261 257 252 252 255 258
237 238 239 238 239 240 242 245 249 251 253 252 248 246 247 249 253 257 261 266 270 269 267 264 260 258 255 252 250 250 249 249 248 245 242 238 235 234 235 237 238 237 234 229 227 228 230 230 230 231 231 232 233 234 234 235 237 239 241 243 245 247 248 251 254 257 261 264 265 263 259 257 259 259
236 237 238 238 238 239 240 243 245 248 249 248 247 247 248 249 252 256 260 267 271 268 263 258 255 253 252 251 252 251 250 249 248 246 242 237 233 232 233 234 235 235 234 231 227 225 226 228 229 231 232 233 234 235 236 238 240 242 243 245 248 250 252 253 255 257 258 259 261 260 258 259 263 263
235 236 238 237 236 237 239 240 242 245 245 244 245 248 250 250 251 252 255 263 268 265 257 252 250 250 250 252 253 252 251 249 248 249 246 238 232 229 229 230 232 232 231 230 226 223 223 224 226 230 233 234 235 236 236 237 240 243 245 246 247 249 252 253 255 258 258 256 255 253 250 252 257 260
234 235 236 236 234 234 236 237 238 241 242 242 243 247 250 252 252 250 251 256 262 261 253 248 247 249 251 253 252 250 249 249 249 248 243 235 228 226 225 226 227 226 223 222 223 222 221 221 224 227 231 235 237 237 237 239 242 244 245 245 245 247 250 251 253 255 256 254 251 248 245 246 250 254
232 232 234 234 231 230 231 232 235 238 239 240 243 247 250 252 252 251 250 252 256 257 252 247 247 247 246 246 245 241 241 247 249 242 233 227 225 223 220 219 220 218 215 217 220 220 219 219 223 227 231 235 238 239 240 241 241 239 238 239 240 243 246 247 246 247 246 245 245 247 246 245 247 250
231 231 232 231 228 227 228 229 231 234 235 237 241 245 249 251 252 252 250 249 251 254 253 247 240 234 232 234 238 241 241 243 245 237 224 219 219 218 216 215 216 215 216 217 217 216 215 217 221 226 229 232 235 235 232 230 229 230 233 235 236 238 240 240 240 240 239 239 242 248 249 247 247 248
231 231 231 228 225 224 225 226 227 230 232 234 238 243 248 249 250 251 250 247 246 250 252 247 233 224 227 233 238 244 245 240 236 233 223 215 212 212 213 215 216 217 216 214 212 210 210 212 215 218 221 225 227 225 220 217 220 225 229 231 232 232 234 233 232 235 237 236 238 243 245 245 246 246
228 229 229 225 222 222 222 223 225 228 230 232 236 241 246 247 248 250 250 248 245 245 248 246 233 225 229 236 239 244 247 239 224 219 215 211 207 207 208 209 211 211 208 205 204 204 204 205 209 213 216 218 221 220 218 218 220 222 222 225 227 229 230 229 227 229 233 234 235 238 242 244 245 246
226 226 223 221 220 219 219 221 223 225 228 230 234 239 243 245 247 249 250 250 247 243 243 245 238 231 232 237 239 239 236 226 213 208 206 200 194 195 199 201 200 198 197 197 199 203 204 205 208 212 215 216 218 221 223 224 224 222 222 226 228 227 229 230 229 230 234 236 236 239 244 247 249 249
223 221 219 218 218 217 218 220 222 223 225 228 232 237 240 243 247 249 251 252 250 245 241 241 239 235 232 233 235 231 222 212 207 206 202 193 186 186 192 195 194 195 198 201 206 209 210 210 212 215 217 218 219 222 224 226 227 226 228 232 234 232 231 232 233 235 237 238 239 242 246 250 252 251
220 219 218 217 216 216 218 220 220 221 224 227 230 234 238 242 246 250 252 253 252 247 241 236 236 235 231 229 229 223 211 205 205 204 199 195 193 192 194 196 196 198 202 206 210 213 215 217 220 222 224 225 225 226 227 228 229 230 232 236 239 238 236 234 234 236 238 240 243 246 247 249 252 252